DECAYED

STARLINK-5228, 54180 (Decayed)

Orbit data source: Space-Track

STARLINK-5228, 54180 was a payload satellite owned by SpaceX/Seattle (US) in LEO that was launched on Fri, 28 Oct 2022 UTC via an FALCON 9 launch vehicle from the Air Force Western Test Range (AFWTR). Payload-class satellites include a variety of spacecraft equipped with specific instruments for various scientific and technological missions. These include communications satellites like Starlink; space stations such as the ISS; scientific satellites like the Hubble; Earth observation satellites from companies like Planet Labs, Umbra, and HawkEye 360; GPS; miniature CubeSats for education and research; and military/defense satellites.

Not visible in the next 10 days
Identifier
54180, 2022-141Z
Orbit
Decayed
Country
Flag of USUS
Related business
Manufacturer
SpaceX/Seattle
Mission
Decayed Commercial Communications
Bus & Motor
STARLINK, Unknown motor
Mass
305 kg wet, ~290 kg dry
Launch date (UTC)
2022-10-28 (4 years ago)
Launch vehicle
FALCON 9
Launch site
Air Force Western Test Range (AFWTR)
Object type
Payload
Rocket body
Debris
Shape & HBR
Box + 1 Pan, 10.1 m
Radar Cross Section
13.562 m², Large (>1 m²)

Expand to show TLE details & history
Last TLE update: 2 months ago

TLE from 2 months ago
0 STARLINK-5228
1 54180U 22141Z   26124.16333888  .08249203  12420-4  40239-3 0  9995
2 54180  53.2026  88.4600 0006555 269.3321  90.6978 16.42647362194601
Epoch: 2026-05-04T03:55Z
TLE epoch observation values (Epoch: 2026-05-04T03:55:12.479Z)
Latitude
0.00001°
Longitude
167.60153°
Altitude
159.772 km
Speed
7.812 km/s
True Right ascension
05h 53m 50s
True Declination
0° 00' 00"
Sunlit
Object was in daylight at epoch
Visualization orbit readout
Latitude
Unknown
Longitude
Unknown
Altitude
Unknown
Speed
Unknown
Apparent Right ascension
Unknown
Apparent Declination
Unknown
Sunlit
N/A
Visualization observer readout
Local Sidereal Time
21:33:06
Azimuth
Unknown
Elevation
Unknown
Doppler factor
Unknown
Orbital elements
Apogee altitude
163.316 km
Perigee altitude
154.746 km
Semi-major axis
6,537.168 km
Eccentricity
0.00066
Inclination
53.2026°
RAAN
88.46°
Arg. of periapsis
269.3321°
True anomaly
90.77291°
Mean anomaly
90.6978°
Eccentric anomaly
90.73535°
Mean motion
4.10638 °/min
Orbital period
87.67 mins
BSTAR
0.00040239
Loading maneuver chart data...
Computing Atmospheric mass density...
Loading historical data...
Loading historical data...
Loading historical data...
Loading historical data...
Loading historical data...
Loading historical data...
Loading historical data...

Documentation

Showing up to 5 results
|